QPF
0.00 0.00 0.00 0.00 0.00 0.00 0.00 0.00 0.01 0.03 0.04 0.04 0.04 0.02 0.02 0.01 0.01 0.03 0.06 0.03 0.02 0.01 0.01 0.02 0.02 0.01 0.01 0.00 0.00 0.01 0.01 0.01 0.01 0.00 0.00 0.01 0.01 0.01 0.02 0.02 0.02 0.02 0.02 0.02
0.00 0.00 0.00 0.00 0.00 0.00 0.00 0.00 0.01 0.03 0.03 0.04 0.03 0.03 0.02 0.01 0.01 0.02 0.03 0.02 0.01 0.01 0.01 0.02 0.02 0.01 0.00 0.00 0.00 0.00 0.00 0.01 0.01 0.00 0.00 0.00 0.01 0.01 0.02 0.02 0.02 0.02 0.02 0.01
0.00 0.00 0.00 0.00 0.00 0.00 0.00 0.00 0.01 0.02 0.04 0.04 0.03 0.03 0.03 0.03 0.02 0.03 0.02 0.02 0.02 0.01 0.01 0.01 0.01 0.00 0.00 0.00 0.00 0.00 0.01 0.01 0.01 0.00 0.00 0.00 0.01 0.01 0.01 0.03 0.03 0.02 0.02 0.02
0.00 0.00 0.00 0.00 0.00 0.00 0.00 0.00 0.00 0.01 0.03 0.03 0.03 0.06 0.06 0.04 0.05 0.05 0.03 0.03 0.02 0.01 0.01 0.01 0.02 0.01 0.01 0.00 0.00 0.00 0.01 0.01 0.01 0.00 0.00 0.00 0.00 0.01 0.01 0.02 0.02 0.01 0.02 0.02
0.00 0.00 0.00 0.00 0.00 0.00 0.00 0.00 0.01 0.01 0.01 0.03 0.05 0.06 0.07 0.05 0.05 0.05 0.02 0.03 0.02 0.01 0.01 0.02 0.02 0.01 0.01 0.01 0.00 0.00 0.00 0.01 0.01 0.00 0.00 0.00 0.00 0.00 0.01 0.02 0.02 0.01 0.01 0.02
0.00 0.00 0.00 0.00 0.00 0.00 0.00 0.00 0.00 0.00 0.01 0.02 0.05 0.04 0.04 0.04 0.05 0.03 0.02 0.03 0.02 0.01 0.01 0.02 0.02 0.01 0.02 0.02 0.01 0.00 0.00 0.00 0.00 0.00 0.00 0.00 0.00 0.00 0.01 0.01 0.02 0.01 0.01 0.01
0.00 0.00 0.00 0.00 0.00 0.00 0.00 0.00 0.00 0.01 0.01 0.02 0.02 0.02 0.03 0.03 0.03 0.02 0.02 0.03 0.03 0.02 0.01 0.02 0.02 0.01 0.04 0.03 0.01 0.00 0.00 0.00 0.00 0.00 0.00 0.00 0.00 0.00 0.00 0.00 0.01 0.01 0.01 0.01
0.00 0.00 0.00 0.00 0.00 0.00 0.00 0.00 0.00 0.01 0.01 0.01 0.02 0.02 0.03 0.03 0.03 0.02 0.02 0.03 0.03 0.02 0.01 0.01 0.02 0.01 0.01 0.01 0.01 0.00 0.00 0.00 0.00 0.00 0.00 0.01 0.00 0.00 0.01 0.01 0.01 0.01 0.01 0.01
0.00 0.00 0.00 0.00 0.00 0.00 0.00 0.00 0.00 0.00 0.01 0.01 0.03 0.02 0.03 0.03 0.02 0.03 0.03 0.02 0.03 0.02 0.01 0.01 0.01 0.01 0.01 0.01 0.00 0.00 0.00 0.00 0.00 0.00 0.00 0.00 0.01 0.01 0.01 0.01 0.00 0.01 0.01 0.01
0.00 0.00 0.00 0.00 0.00 0.00 0.00 0.00 0.00 0.00 0.00 0.01 0.01 0.01 0.02 0.03 0.02 0.03 0.05 0.05 0.03 0.03 0.02 0.01 0.01 0.01 0.01 0.02 0.01 0.00 0.00 0.00 0.01 0.01 0.01 0.01 0.01 0.01 0.01 0.00 0.00 0.00 0.01 0.01
0.00 0.00 0.00 0.00 0.00 0.00 0.00 0.00 0.00 0.00 0.00 0.01 0.02 0.02 0.02 0.01 0.01 0.02 0.03 0.06 0.02 0.02 0.03 0.03 0.03 0.02 0.03 0.03 0.02 0.01 0.01 0.01 0.01 0.01 0.01 0.01 0.01 0.01 0.00 0.00 0.00 0.00 0.00 0.01
0.00 0.00 0.00 0.00 0.00 0.00 0.00 0.00 0.00 0.00 0.00 0.00 0.01 0.01 0.01 0.01 0.02 0.02 0.03 0.03 0.03 0.02 0.03 0.04 0.03 0.03 0.03 0.02 0.02 0.02 0.01 0.01 0.01 0.01 0.01 0.01 0.01 0.01 0.00 0.00 0.00 0.00 0.01 0.01
0.00 0.00 0.00 0.00 0.00 0.00 0.00 0.00 0.00 0.00 0.00 0.00 0.01 0.02 0.01 0.02 0.02 0.03 0.04 0.04 0.05 0.02 0.03 0.05 0.05 0.04 0.03 0.05 0.06 0.05 0.04 0.03 0.02 0.03 0.04 0.03 0.02 0.02 0.01 0.01 0.01 0.02 0.02 0.01
0.00 0.00 0.00 0.00 0.00 0.00 0.00 0.01 0.00 0.00 0.00 0.00 0.01 0.01 0.01 0.01 0.02 0.05 0.07 0.05 0.03 0.02 0.03 0.05 0.06 0.04 0.04 0.06 0.12 0.15 0.11 0.05 0.05 0.06 0.08 0.07 0.04 0.04 0.04 0.04 0.04 0.04 0.03 0.03
0.00 0.00 0.00 0.00 0.00 0.00 0.00 0.00 0.00 0.00 0.00 0.00 0.00 0.01 0.01 0.01 0.01 0.04 0.09 0.04 0.03 0.03 0.03 0.06 0.06 0.04 0.04 0.05 0.12 0.22 0.12 0.05 0.04 0.04 0.06 0.06 0.05 0.06 0.08 0.08 0.06 0.05 0.04 0.04
0.00 0.00 0.00 0.00 0.00 0.00 0.00 0.00 0.00 0.00 0.00 0.01 0.00 0.00 0.01 0.01 0.01 0.03 0.06 0.03 0.03 0.04 0.05 0.06 0.12 0.06 0.05 0.08 0.09 0.14 0.12 0.09 0.08 0.06 0.05 0.06 0.06 0.06 0.07 0.10 0.10 0.06 0.03 0.02
0.00 0.00 0.00 0.00 0.00 0.00 0.00 0.00 0.00 0.00 0.01 0.01 0.01 0.01 0.01 0.02 0.03 0.04 0.11 0.11 0.08 0.10 0.13 0.10 0.12 0.07 0.06 0.09 0.07 0.07 0.11 0.12 0.08 0.05 0.04 0.04 0.04 0.06 0.06 0.06 0.07 0.06 0.04 0.03
0.00 0.00 0.00 0.00 0.00 0.00 0.00 0.01 0.01 0.01 0.01 0.01 0.01 0.01 0.01 0.02 0.03 0.06 0.10 0.12 0.09 0.10 0.12 0.13 0.09 0.07 0.07 0.08 0.08 0.08 0.07 0.06 0.06 0.07 0.07 0.04 0.07 0.12 0.11 0.09 0.09 0.08 0.07 0.05
0.00 0.00 0.00 0.00 0.00 0.00 0.00 0.00 0.01 0.01 0.01 0.01 0.02 0.02 0.01 0.02 0.03 0.03 0.06 0.07 0.06 0.05 0.05 0.07 0.07 0.05 0.04 0.04 0.05 0.08 0.10 0.08 0.08 0.09 0.11 0.08 0.04 0.11 0.15 0.15 0.13 0.12 0.09 0.05
0.00 0.00 0.00 0.00 0.00 0.00 0.00 0.00 0.00 0.00 0.01 0.02 0.02 0.03 0.03 0.02 0.03 0.05 0.05 0.06 0.06 0.05 0.05 0.05 0.05 0.04 0.03 0.03 0.04 0.07 0.07 0.07 0.06 0.06 0.07 0.08 0.06 0.05 0.07 0.10 0.11 0.09 0.06 0.04
0.00 0.00 0.00 0.00 0.00 0.00 0.00 0.00 0.00 0.01 0.01 0.02 0.02 0.02 0.02 0.02 0.02 0.04 0.04 0.05 0.07 0.06 0.06 0.07 0.06 0.06 0.06 0.07 0.05 0.06 0.06 0.07 0.09 0.08 0.07 0.09 0.08 0.08 0.07 0.07 0.05 0.05 0.04 0.03
0.01 0.01 0.00 0.00 0.01 0.01 0.00 0.00 0.00 0.00 0.00 0.01 0.02 0.02 0.03 0.03 0.02 0.03 0.06 0.10 0.12 0.10 0.06 0.06 0.06 0.08 0.08 0.07 0.08 0.13 0.10 0.14 0.22 0.23 0.11 0.06 0.06 0.10 0.12 0.10 0.08 0.06 0.05 0.04
0.01 0.01 0.01 0.01 0.01 0.01 0.01 0.01 0.01 0.01 0.01 0.01 0.01 0.02 0.02 0.02 0.01 0.03 0.10 0.16 0.15 0.08 0.05 0.05 0.05 0.07 0.07 0.07 0.08 0.08 0.08 0.08 0.08 0.12 0.11 0.06 0.05 0.04 0.05 0.07 0.09 0.08 0.06 0.04
0.01 0.01 0.01 0.02 0.02 0.01 0.01 0.01 0.01 0.02 0.02 0.02 0.02 0.02 0.02 0.02 0.03 0.04 0.06 0.07 0.05 0.04 0.04 0.04 0.04 0.04 0.04 0.04 0.04 0.04 0.05 0.05 0.06 0.06 0.05 0.05 0.04 0.03 0.03 0.03 0.03 0.03 0.03 0.02
0.02 0.01 0.01 0.02 0.03 0.02 0.02 0.02 0.01 0.01 0.01 0.02 0.02 0.02 0.02 0.02 0.03 0.05 0.05 0.04 0.03 0.03 0.03 0.02 0.02 0.02 0.02 0.02 0.03 0.02 0.02 0.03 0.05 0.08 0.06 0.06 0.05 0.03 0.02 0.02 0.02 0.01 0.01 0.01
0.03 0.03 0.03 0.03 0.04 0.04 0.03 0.02 0.02 0.02 0.01 0.01 0.02 0.02 0.03 0.03 0.04 0.04 0.04 0.04 0.03 0.03 0.03 0.02 0.02 0.03 0.03 0.02 0.02 0.03 0.03 0.03 0.04 0.07 0.06 0.05 0.05 0.04 0.03 0.02 0.02 0.02 0.02 0.02
MSLP
1007.76 1008.63 1009.21 1009.47 1009.46 1009.26 1008.97 1008.70 1008.53 1008.48 1008.56 1008.73 1008.92 1009.08 1009.16 1009.13 1009.02 1008.86 1008.71 1008.61 1008.63 1008.77 1009.05 1009.46 1009.95 1010.50 1011.07 1011.64 1012.21 1012.75 1013.27 1013.78 1014.26 1014.71 1015.11 1015.44 1015.71 1015.89 1016.01 1016.07 1016.09 1016.11 1016.14 1016.18
1008.00 1008.65 1009.02 1009.13 1009.03 1008.84 1008.65 1008.55 1008.58 1008.73 1008.97 1009.23 1009.45 1009.56 1009.54 1009.39 1009.15 1008.89 1008.67 1008.55 1008.57 1008.75 1009.07 1009.49 1009.97 1010.49 1011.00 1011.51 1012.01 1012.52 1013.04 1013.57 1014.12 1014.65 1015.14 1015.55 1015.86 1016.07 1016.18 1016.20 1016.18 1016.15 1016.13 1016.14
1007.88 1008.29 1008.45 1008.41 1008.28 1008.15 1008.12 1008.24 1008.52 1008.91 1009.34 1009.72 1009.96 1010.02 1009.88 1009.58 1009.19 1008.81 1008.51 1008.36 1008.40 1008.62 1008.98 1009.45 1009.96 1010.47 1010.97 1011.43 1011.90 1012.38 1012.90 1013.46 1014.06 1014.65 1015.21 1015.69 1016.05 1016.28 1016.37 1016.37 1016.30 1016.22 1016.16 1016.15
1007.46 1007.62 1007.59 1007.45 1007.32 1007.30 1007.48 1007.87 1008.43 1009.08 1009.70 1010.18 1010.44 1010.42 1010.14 1009.67 1009.12 1008.59 1008.20 1008.01 1008.06 1008.33 1008.76 1009.30 1009.87 1010.42 1010.92 1011.39 1011.84 1012.31 1012.83 1013.41 1014.04 1014.69 1015.30 1015.83 1016.23 1016.47 1016.56 1016.54 1016.44 1016.32 1016.22 1016.19
1006.86 1006.80 1006.61 1006.41 1006.33 1006.47 1006.88 1007.55 1008.40 1009.29 1010.08 1010.64 1010.87 1010.76 1010.32 1009.66 1008.92 1008.24 1007.74 1007.51 1007.57 1007.89 1008.41 1009.03 1009.68 1010.29 1010.84 1011.32 1011.78 1012.25 1012.77 1013.36 1014.02 1014.70 1015.34 1015.91 1016.33 1016.60 1016.70 1016.67 1016.55 1016.41 1016.30 1016.25
1006.24 1006.00 1005.70 1005.49 1005.49 1005.80 1006.44 1007.36 1008.45 1009.54 1010.46 1011.05 1011.24 1011.00 1010.39 1009.54 1008.61 1007.78 1007.18 1006.90 1006.97 1007.34 1007.94 1008.66 1009.40 1010.09 1010.68 1011.20 1011.67 1012.15 1012.67 1013.26 1013.92 1014.61 1015.28 1015.86 1016.31 1016.60 1016.72 1016.70 1016.60 1016.47 1016.36 1016.30
1005.74 1005.37 1005.02 1004.82 1004.92 1005.38 1006.21 1007.33 1008.60 1009.81 1010.78 1011.36 1011.47 1011.10 1010.32 1009.30 1008.22 1007.26 1006.58 1006.27 1006.35 1006.76 1007.43 1008.23 1009.05 1009.80 1010.45 1011.00 1011.49 1011.96 1012.47 1013.05 1013.70 1014.39 1015.06 1015.66 1016.14 1016.45 1016.60 1016.62 1016.55 1016.45 1016.36 1016.32
1005.45 1005.02 1004.65 1004.49 1004.67 1005.25 1006.20 1007.43 1008.78 1010.02 1010.98 1011.50 1011.51 1011.01 1010.10 1008.95 1007.77 1006.73 1006.01 1005.69 1005.78 1006.24 1006.96 1007.81 1008.68 1009.47 1010.15 1010.72 1011.21 1011.67 1012.16 1012.73 1013.35 1014.03 1014.70 1015.30 1015.80 1016.15 1016.35 1016.41 1016.39 1016.34 1016.29 1016.28
1005.42 1004.98 1004.62 1004.51 1004.75 1005.37 1006.36 1007.60 1008.91 1010.10 1010.97 1011.39 1011.29 1010.69 1009.71 1008.50 1007.29 1006.25 1005.54 1005.23 1005.35 1005.83 1006.57 1007.45 1008.33 1009.13 1009.81 1010.37 1010.84 1011.29 1011.76 1012.29 1012.90 1013.56 1014.22 1014.83 1015.35 1015.73 1015.98 1016.10 1016.14 1016.14 1016.14 1016.17
1005.62 1005.22 1004.91 1004.83 1005.08 1005.68 1006.61 1007.74 1008.93 1009.97 1010.69 1010.98 1010.79 1010.15 1009.15 1007.97 1006.81 1005.84 1005.20 1004.95 1005.10 1005.60 1006.33 1007.18 1008.03 1008.79 1009.44 1009.97 1010.41 1010.84 1011.29 1011.80 1012.39 1013.03 1013.69 1014.30 1014.84 1015.26 1015.55 1015.72 1015.82 1015.87 1015.93 1016.00
1006.02 1005.69 1005.44 1005.37 1005.59 1006.10 1006.87 1007.82 1008.78 1009.61 1010.15 1010.30 1010.04 1009.39 1008.46 1007.39 1006.37 1005.53 1005.01 1004.85 1005.04 1005.54 1006.23 1007.02 1007.79 1008.48 1009.07 1009.54 1009.96 1010.36 1010.79 1011.30 1011.88 1012.51 1013.17 1013.79 1014.34 1014.78 1015.11 1015.33 1015.47 1015.58 1015.67 1015.78
1006.53 1006.29 1006.10 1006.04 1006.18 1006.55 1007.12 1007.81 1008.50 1009.07 1009.40 1009.43 1009.12 1008.51 1007.70 1006.81 1005.98 1005.34 1004.97 1004.90 1005.14 1005.61 1006.24 1006.92 1007.59 1008.18 1008.68 1009.11 1009.49 1009.87 1010.31 1010.82 1011.41 1012.05 1012.71 1013.34 1013.90 1014.36 1014.71 1014.96 1015.13 1015.27 1015.40 1015.54
1007.09 1006.96 1006.83 1006.76 1006.82 1007.02 1007.35 1007.75 1008.15 1008.45 1008.58 1008.48 1008.16 1007.63 1006.98 1006.30 1005.69 1005.26 1005.04 1005.07 1005.33 1005.76 1006.29 1006.85 1007.39 1007.87 1008.28 1008.64 1009.00 1009.39 1009.84 1010.38 1010.99 1011.65 1012.32 1012.96 1013.52 1013.99 1014.35 1014.62 1014.82 1014.98 1015.13 1015.30
1007.67 1007.64 1007.56 1007.48 1007.45 1007.48 1007.57 1007.70 1007.82 1007.87 1007.81 1007.62 1007.29 1006.86 1006.38 1005.91 1005.53 1005.29 1005.21 1005.31 1005.56 1005.92 1006.33 1006.76 1007.15 1007.50 1007.82 1008.14 1008.48 1008.89 1009.38 1009.95 1010.60 1011.29 1011.98 1012.62 1013.19 1013.65 1014.01 1014.29 1014.51 1014.69 1014.86 1015.04
1008.24 1008.29 1008.26 1008.18 1008.07 1007.95 1007.84 1007.73 1007.60 1007.44 1007.23 1006.96 1006.65 1006.31 1005.99 1005.71 1005.51 1005.43 1005.45 1005.58 1005.79 1006.05 1006.32 1006.59 1006.84 1007.07 1007.31 1007.59 1007.93 1008.36 1008.89 1009.51 1010.20 1010.91 1011.62 1012.26 1012.83 1013.29 1013.66 1013.94 1014.17 1014.37 1014.56 1014.76
1008.78 1008.90 1008.91 1008.83 1008.66 1008.44 1008.17 1007.88 1007.56 1007.24 1006.92 1006.60 1006.31 1006.05 1005.85 1005.71 1005.65 1005.66 1005.73 1005.84 1005.98 1006.11 1006.24 1006.35 1006.45 1006.58 1006.74 1006.99 1007.33 1007.79 1008.36 1009.02 1009.74 1010.47 1011.18 1011.83 1012.39 1012.86 1013.23 1013.52 1013.77 1013.99 1014.21 1014.44
1009.30 1009.46 1009.50 1009.41 1009.22 1008.92 1008.55 1008.14 1007.70 1007.28 1006.88 1006.54 1006.27 1006.08 1005.96 1005.91 1005.92 1005.97 1006.03 1006.09 1006.12 1006.12 1006.09 1006.05 1006.03 1006.05 1006.15 1006.37 1006.71 1007.19 1007.78 1008.47 1009.20 1009.94 1010.65 1011.29 1011.84 1012.31 1012.69 1013.01 1013.28 1013.54 1013.79 1014.05
1009.77 1009.94 1009.98 1009.90 1009.68 1009.35 1008.93 1008.46 1007.96 1007.49 1007.08 1006.74 1006.49 1006.33 1006.26 1006.26 1006.29 1006.32 1006.33 1006.30 1006.21 1006.08 1005.91 1005.74 1005.61 1005.55 1005.60 1005.78 1006.11 1006.59 1007.18 1007.86 1008.59 1009.31 1010.00 1010.62 1011.17 1011.63 1012.03 1012.38 1012.70 1013.00 1013.30 1013.59
1010.20 1010.32 1010.34 1010.24 1010.01 1009.67 1009.24 1008.75 1008.25 1007.78 1007.37 1007.05 1006.83 1006.70 1006.65 1006.65 1006.66 1006.65 1006.59 1006.46 1006.27 1006.02 1005.73 1005.46 1005.24 1005.12 1005.13 1005.28 1005.59 1006.04 1006.61 1007.26 1007.94 1008.62 1009.27 1009.86 1010.39 1010.86 1011.27 1011.66 1012.02 1012.37 1012.71 1013.04
1010.55 1010.60 1010.56 1010.42 1010.17 1009.82 1009.39 1008.92 1008.45 1008.01 1007.63 1007.35 1007.16 1007.05 1007.01 1007.00 1006.97 1006.91 1006.78 1006.57 1006.29 1005.95 1005.59 1005.25 1004.97 1004.81 1004.78 1004.90 1005.17 1005.58 1006.10 1006.68 1007.30 1007.92 1008.51 1009.05 1009.56 1010.02 1010.46 1010.87 1011.28 1011.67 1012.06 1012.43
1010.82 1010.76 1010.63 1010.42 1010.13 1009.76 1009.34 1008.90 1008.46 1008.07 1007.75 1007.51 1007.36 1007.27 1007.23 1007.20 1007.15 1007.04 1006.86 1006.59 1006.25 1005.87 1005.47 1005.10 1004.81 1004.62 1004.56 1004.65 1004.88 1005.23 1005.67 1006.18 1006.71 1007.24 1007.76 1008.25 1008.72 1009.17 1009.61 1010.06 1010.49 1010.93 1011.35 1011.74
1010.98 1010.79 1010.54 1010.24 1009.88 1009.49 1009.07 1008.65 1008.26 1007.93 1007.67 1007.48 1007.36 1007.30 1007.26 1007.22 1007.15 1007.01 1006.80 1006.51 1006.16 1005.76 1005.36 1005.00 1004.71 1004.52 1004.45 1004.51 1004.68 1004.96 1005.32 1005.73 1006.16 1006.60 1007.04 1007.47 1007.90 1008.33 1008.77 1009.22 1009.68 1010.14 1010.58 1010.99
1011.03 1010.69 1010.31 1009.90 1009.47 1009.03 1008.61 1008.21 1007.87 1007.59 1007.38 1007.24 1007.16 1007.13 1007.10 1007.06 1006.98 1006.84 1006.62 1006.33 1005.99 1005.61 1005.24 1004.90 1004.63 1004.45 1004.37 1004.40 1004.52 1004.73 1005.00 1005.31 1005.64 1005.98 1006.34 1006.70 1007.08 1007.49 1007.92 1008.37 1008.84 1009.31 1009.76 1010.17
1010.94 1010.46 1009.95 1009.43 1008.93 1008.46 1008.02 1007.65 1007.34 1007.11 1006.96 1006.86 1006.82 1006.81 1006.80 1006.76 1006.68 1006.54 1006.33 1006.06 1005.75 1005.41 1005.08 1004.77 1004.53 1004.36 1004.27 1004.26 1004.33 1004.46 1004.64 1004.85 1005.09 1005.34 1005.62 1005.92 1006.25 1006.62 1007.03 1007.48 1007.94 1008.41 1008.87 1009.29
1010.71 1010.10 1009.49 1008.89 1008.33 1007.83 1007.40 1007.05 1006.79 1006.61 1006.50 1006.45 1006.44 1006.44 1006.44 1006.41 1006.34 1006.20 1006.01 1005.76 1005.47 1005.17 1004.86 1004.59 1004.36 1004.19 1004.08 1004.03 1004.04 1004.10 1004.19 1004.31 1004.46 1004.63 1004.84 1005.08 1005.37 1005.71 1006.09 1006.52 1006.98 1007.44 1007.90 1008.32
1010.30 1009.61 1008.94 1008.30 1007.72 1007.23 1006.82 1006.52 1006.30 1006.17 1006.11 1006.10 1006.12 1006.14 1006.15 1006.12 1006.03 1005.90 1005.71 1005.47 1005.19 1004.91 1004.62 1004.35 1004.12 1003.93 1003.78 1003.68 1003.63 1003.60 1003.61 1003.65 1003.72 1003.82 1003.96 1004.15 1004.40 1004.71 1005.07 1005.48 1005.93 1006.39 1006.84 1007.28
Thickness
5832 5813 5801 5808 5814 5813 5810 5803 5798 5807 5823 5814 5805 5802 5809 5814 5813 5810 5809 5809 5809 5810 5813 5813 5812 5810 5806 5803 5800 5798 5795 5794 5792 5789 5786 5783 5782 5782 5782 5783 5782 5781 5780 5779
5809 5804 5823 5830 5828 5821 5813 5801 5799 5808 5823 5813 5800 5801 5810 5814 5814 5815 5814 5812 5811 5809 5809 5810 5810 5809 5806 5803 5801 5798 5796 5795 5793 5791 5789 5787 5785 5783 5783 5782 5782 5781 5780 5779
5800 5816 5834 5829 5821 5815 5810 5803 5803 5803 5812 5812 5800 5790 5799 5811 5817 5818 5819 5818 5816 5813 5809 5809 5808 5807 5806 5803 5802 5801 5798 5796 5795 5793 5790 5787 5784 5782 5780 5780 5780 5781 5781 5780
5809 5828 5830 5824 5819 5819 5803 5823 5820 5812 5796 5782 5790 5763 5786 5798 5804 5811 5814 5816 5816 5817 5814 5811 5809 5807 5807 5806 5805 5803 5800 5798 5796 5794 5790 5785 5780 5777 5778 5779 5780 5781 5781 5780
5807 5825 5823 5817 5825 5829 5819 5831 5822 5813 5795 5780 5783 5767 5776 5795 5794 5805 5814 5818 5820 5819 5817 5814 5813 5812 5810 5809 5807 5804 5801 5798 5796 5794 5791 5786 5783 5781 5781 5781 5780 5779 5780 5780
5817 5835 5834 5832 5840 5841 5834 5821 5810 5796 5780 5761 5777 5769 5770 5789 5801 5809 5816 5820 5821 5821 5820 5818 5817 5815 5811 5810 5807 5804 5800 5798 5797 5794 5792 5789 5785 5782 5779 5778 5777 5777 5778 5778
5803 5821 5837 5842 5826 5830 5824 5790 5761 5756 5747 5754 5780 5774 5779 5809 5819 5819 5817 5819 5821 5821 5818 5816 5814 5813 5811 5809 5807 5804 5801 5798 5797 5794 5792 5790 5787 5784 5781 5779 5778 5777 5775 5775
5779 5786 5822 5835 5826 5813 5814 5793 5760 5746 5742 5753 5773 5770 5794 5822 5826 5826 5824 5821 5820 5818 5818 5817 5817 5815 5813 5811 5808 5805 5801 5799 5797 5795 5793 5791 5789 5786 5783 5781 5780 5778 5776 5776
5779 5786 5827 5841 5844 5831 5811 5799 5796 5769 5762 5751 5759 5778 5799 5817 5818 5819 5819 5819 5816 5815 5816 5816 5817 5817 5815 5812 5809 5807 5803 5800 5798 5796 5793 5791 5789 5787 5784 5783 5781 5780 5779 5778
5797 5788 5813 5834 5839 5834 5825 5812 5784 5765 5747 5739 5753 5765 5774 5797 5804 5810 5811 5813 5814 5815 5816 5815 5814 5816 5815 5814 5812 5809 5805 5801 5799 5797 5794 5792 5790 5788 5786 5783 5781 5780 5779 5777
5802 5784 5795 5810 5808 5807 5813 5805 5787 5766 5760 5741 5737 5759 5803 5805 5810 5810 5812 5815 5815 5815 5816 5816 5815 5816 5816 5814 5811 5807 5803 5800 5798 5796 5794 5792 5790 5788 5785 5782 5781 5780 5778 5776
5799 5779 5772 5792 5816 5827 5816 5804 5786 5765 5759 5754 5747 5765 5819 5816 5817 5816 5814 5816 5817 5818 5818 5818 5817 5815 5812 5810 5808 5804 5802 5799 5798 5797 5794 5790 5788 5786 5783 5781 5780 5778 5776 5775
5796 5772 5754 5762 5782 5803 5804 5805 5796 5779 5762 5751 5746 5768 5813 5813 5812 5813 5813 5813 5814 5814 5814 5813 5811 5810 5808 5807 5804 5801 5800 5797 5796 5794 5791 5788 5785 5783 5781 5779 5778 5776 5774 5772
5801 5768 5756 5750 5762 5782 5789 5798 5799 5782 5758 5755 5763 5776 5794 5800 5802 5805 5808 5809 5810 5810 5808 5808 5806 5805 5805 5804 5801 5797 5796 5796 5794 5791 5788 5785 5783 5782 5780 5777 5775 5773 5771 5768
5786 5764 5769 5774 5785 5791 5791 5793 5796 5787 5777 5767 5773 5779 5789 5798 5801 5804 5806 5806 5805 5804 5803 5804 5802 5800 5800 5798 5798 5797 5795 5793 5792 5788 5785 5783 5782 5780 5777 5774 5772 5770 5767 5766
5770 5761 5764 5767 5782 5786 5784 5791 5793 5790 5788 5782 5781 5781 5798 5802 5802 5800 5801 5801 5798 5798 5799 5799 5799 5797 5795 5795 5795 5794 5793 5790 5788 5784 5781 5780 5778 5775 5772 5770 5767 5765 5762 5760
5755 5752 5743 5743 5764 5769 5759 5780 5785 5785 5789 5785 5775 5784 5794 5792 5794 5794 5796 5797 5795 5795 5796 5796 5795 5796 5795 5794 5792 5789 5788 5786 5783 5779 5777 5775 5773 5770 5768 5766 5762 5759 5757 5754
5749 5740 5728 5730 5743 5731 5756 5789 5793 5786 5785 5788 5787 5789 5793 5794 5794 5796 5797 5794 5792 5793 5792 5790 5791 5793 5794 5792 5790 5787 5784 5780 5777 5773 5770 5769 5767 5764 5763 5760 5756 5754 5751 5748
5754 5739 5723 5715 5719 5732 5760 5781 5784 5777 5770 5784 5783 5785 5788 5791 5787 5784 5792 5793 5791 5791 5789 5787 5788 5789 5789 5787 5786 5782 5777 5774 5771 5767 5764 5763 5761 5759 5757 5754 5751 5749 5745 5742
5743 5737 5721 5713 5714 5715 5745 5778 5792 5779 5755 5779 5780 5779 5780 5780 5762 5768 5785 5787 5786 5786 5784 5783 5782 5782 5781 5781 5779 5774 5769 5766 5763 5762 5761 5758 5756 5753 5751 5749 5746 5743 5739 5736
5717 5715 5711 5708 5708 5722 5754 5775 5779 5745 5746 5773 5777 5777 5775 5769 5769 5775 5780 5779 5779 5779 5778 5776 5775 5773 5773 5773 5771 5765 5762 5759 5758 5757 5756 5753 5750 5748 5745 5742 5739 5736 5733 5730
5703 5699 5700 5700 5700 5711 5754 5761 5751 5749 5765 5770 5772 5772 5770 5769 5770 5770 5771 5771 5771 5770 5769 5768 5766 5764 5763 5765 5762 5756 5754 5755 5753 5750 5748 5745 5743 5741 5740 5735 5731 5728 5725 5721
5702 5705 5705 5707 5710 5731 5746 5750 5756 5759 5759 5762 5763 5766 5766 5763 5760 5760 5761 5762 5762 5761 5759 5759 5758 5756 5755 5756 5755 5751 5750 5750 5746 5742 5739 5737 5734 5733 5731 5728 5724 5720 5718 5714
5700 5707 5705 5706 5716 5728 5738 5746 5750 5753 5754 5757 5759 5760 5759 5755 5753 5752 5752 5752 5752 5752 5752 5752 5751 5747 5747 5748 5748 5746 5745 5743 5739 5734 5731 5729 5726 5724 5723 5720 5718 5714 5711 5708
5693 5697 5694 5697 5708 5718 5725 5733 5739 5744 5749 5750 5751 5751 5750 5748 5746 5745 5744 5743 5743 5744 5744 5744 5740 5738 5738 5739 5738 5738 5736 5734 5729 5725 5723 5721 5720 5717 5715 5713 5712 5710 5708 5706
5687 5688 5686 5687 5700 5703 5710 5722 5731 5731 5734 5738 5738 5738 5738 5739 5738 5737 5735 5734 5734 5733 5734 5733 5732 5731 5730 5730 5729 5729 5728 5725 5720 5716 5714 5713 5712 5710 5707 5704 5702 5704 5703 5701